WetterOnline ( http://www.wetteronline.de )

Wetter aktuell Malsch

Aktuelles Wetter: Rheinstetten (116m)

6-stündlich | Neueste Meldungen
Ortszeit Temperatur Wetter
Mo, 23.07. 2:00 18.1° C bedeckt
So, 22.07. 20:00 20.9° C bedeckt
So, 22.07. 14:00 24.6° C wolkig
So, 22.07. 8:00 18.7° C wolkig
So, 22.07. 2:00 19.1° C wolkig
Sa, 21.07. 20:00 18.8° C leichter Regen
Sa, 21.07. 14:00 22.4° C bewölkt
Sa, 21.07. 8:00 19.5° C leichter Regen
Ortszeit Temperatur Wetter
Mo, 23.07. 6:00 15.9° C leicht bewölkt
Mo, 23.07. 5:50 15.9° C bewölkt
Mo, 23.07. 5:40 16.0° C wolkig
Mo, 23.07. 5:30 15.9° C leicht bewölkt
Mo, 23.07. 5:20 15.9° C wolkig
Mo, 23.07. 5:10 16.2° C leicht bewölkt
Mo, 23.07. 5:00 16.3° C bewölkt
Mo, 23.07. 4:30 16.4° C wolkig
Mo, 23.07. 4:00 16.8° C bewölkt
Mo, 23.07. 3:30 17.3° C bewölkt
Mo, 23.07. 3:00 17.8° C bedeckt
Ortszeit Relative Feuchte Sichtweite
Mo, 23.07. 2:00 94% 11 km
So, 22.07. 20:00 71% 30 km
So, 22.07. 14:00 60% 18 km
So, 22.07. 8:00 88% 18 km
So, 22.07. 2:00 95% 9 km
Sa, 21.07. 20:00 95% 21 km
Sa, 21.07. 14:00 73% 22 km
Sa, 21.07. 8:00 84% 25 km
Ortszeit Relative Feuchte Sichtweite
Mo, 23.07. 6:00 98% 7 km
Mo, 23.07. 5:50 98% -
Mo, 23.07. 5:40 98% -
Mo, 23.07. 5:30 98% 6 km
Mo, 23.07. 5:20 98% -
Mo, 23.07. 5:10 97% -
Mo, 23.07. 5:00 97% 7 km
Mo, 23.07. 4:30 97% 7 km
Mo, 23.07. 4:00 96% 10 km
Mo, 23.07. 3:30 94% 14 km
Mo, 23.07. 3:00 94% 12 km
Ortszeit Niederschlagsmenge Niederschlagsart
Mo, 23.07. 2:00 0.0 l/m2 in 6 Std. -
So, 22.07. 20:00 0.2 l/m2 in 12 Std. Regenschauer
So, 22.07. 14:00 0.0 l/m2 in 6 Std. -
So, 22.07. 8:00 0.2 l/m2 in 12 Std. -
So, 22.07. 2:00 0.2 l/m2 in 6 Std. Regen
Sa, 21.07. 20:00 19 l/m2 in 12 Std. Gewitter, Schauer
Sa, 21.07. 14:00 2 l/m2 in 6 Std. Regen
Sa, 21.07. 8:00 0.1 l/m2 in 12 Std. Regen
Ortszeit Niederschlagsmenge Niederschlagsart
Mo, 23.07. 6:00 0.0 l/m2 in 1 Std. -
Mo, 23.07. 5:50 keine Meldung -
Mo, 23.07. 5:40 keine Meldung -
Mo, 23.07. 5:30 0.0 l/m2 in 1 Std. -
Mo, 23.07. 5:20 keine Meldung -
Mo, 23.07. 5:10 keine Meldung -
Mo, 23.07. 5:00 0.0 l/m2 in 1 Std. -
Mo, 23.07. 4:30 0.0 l/m2 in 1 Std. -
Mo, 23.07. 4:00 0.0 l/m2 in 1 Std. -
Mo, 23.07. 3:30 0.0 l/m2 in 1 Std. -
Mo, 23.07. 3:00 0.0 l/m2 in 1 Std. -
Ortszeit Stärke Spitze Richtung
km/h Bft. km/h Grad Sektor
Mo, 23.07. 2:00 4 1 14 160° S
So, 22.07. 20:00 9 2 56 160° S
So, 22.07. 14:00 11 2 22 220° SW
So, 22.07. 8:00 13 3 17 230° SW
So, 22.07. 2:00 9 2 11 240° SW
Sa, 21.07. 20:00 2 1 33 160° S
Sa, 21.07. 14:00 14 3 22 230° SW
Sa, 21.07. 8:00 13 3 43 230° SW
Ortszeit Stärke Spitze Richtung
km/h Bft. km/h Grad Sektor
Mo, 23.07. 6:00 4 1 4 160° S
Mo, 23.07. 5:50 4 1 - 160° S
Mo, 23.07. 5:40 4 1 - 120° SO
Mo, 23.07. 5:30 4 1 4 130° SO
Mo, 23.07. 5:20 4 1 - 130° SO
Mo, 23.07. 5:10 2 1 - 230° SW
Mo, 23.07. 5:00 2 1 6 130° SO
Mo, 23.07. 4:30 4 1 7 130° SO
Mo, 23.07. 4:00 0 0 7 - -
Mo, 23.07. 3:30 4 1 7 180° S
Mo, 23.07. 3:00 4 1 4 190° S
Ortszeit Untergrenze Bedeckung Gattung
total tief tief mittel hoch
Mo, 23.07. 2:00 3300 m 8/8 8/8 - - -
So, 22.07. 20:00 4800 m 8/8 8/8 - - -
So, 22.07. 14:00 1020 m 5/8 4/8 Cu Ac -
So, 22.07. 8:00 2700 m 8/8 8/8 - As -
So, 22.07. 2:00 1800 m 8/8 2/8 - - -
Sa, 21.07. 20:00 - 0/8 0/8 - - -
Sa, 21.07. 14:00 600 m 8/8 3/8 Cu As -
Sa, 21.07. 8:00 1500 m 8/8 2/8 Sc As -
Ortszeit Bedeckungsgrad in Achtel und Wolkenuntergrenze
Mo, 23.07. 6:00 4(3300m)
Mo, 23.07. 5:50 7(4200m)
Mo, 23.07. 5:40 2(3300m) 6(4200m)
Mo, 23.07. 5:30 5(3300m) 7(4200m)
Mo, 23.07. 5:20 5(3300m) 5(4200m)
Mo, 23.07. 5:10 3(3300m)
Mo, 23.07. 5:00 7(3300m) 7(9000m)
Mo, 23.07. 4:30 6(4200m) 6(9000m) 6(9000m)
Mo, 23.07. 4:00 6(4500m) 8(9000m) 8(10500m)
Mo, 23.07. 3:30 5(3300m) 8(9000m) 8(9000m)
Mo, 23.07. 3:00 8(3300m) 8(4200m)
Ortszeit Luftdruck NN (hPa) Tendenz (hPa in 3 Std.)
Mo, 23.07. 2:00 1016 + 0,4
So, 22.07. 20:00 1015 + 1,0
So, 22.07. 14:00 1014 - 0,3
So, 22.07. 8:00 1014 + 0,9
So, 22.07. 2:00 1013 + 0,1
Sa, 21.07. 20:00 1013 0,0
Sa, 21.07. 14:00 1013 + 0,2
Sa, 21.07. 8:00 1012 + 0,8
Ortszeit Luftdruck NN (hPa) Tendenz (hPa in 3 Std.)
Mo, 23.07. 6:00 1017 + 0,5
Mo, 23.07. 5:50 1017 keine Meldung
Mo, 23.07. 5:40 1017 keine Meldung
Mo, 23.07. 5:30 1016 + 0,2
Mo, 23.07. 5:20 1016 keine Meldung
Mo, 23.07. 5:10 1016 keine Meldung
Mo, 23.07. 5:00 1016 + 0,2
Mo, 23.07. 4:30 1016 + 0,2
Mo, 23.07. 4:00 1016 + 0,2
Mo, 23.07. 3:30 1016 + 0,1
Mo, 23.07. 3:00 1016 + 0,3
Ortszeit Schneehöhe (cm)
Mo, 23.07. 2:00 -
So, 22.07. 20:00 -
So, 22.07. 14:00 0
So, 22.07. 8:00 0
So, 22.07. 2:00 -
Sa, 21.07. 20:00 -
Sa, 21.07. 14:00 0
Sa, 21.07. 8:00 0
Ortszeit Schneehöhe (cm)
Mo, 23.07. 6:00 -
Mo, 23.07. 5:50 -
Mo, 23.07. 5:40 -
Mo, 23.07. 5:30 -
Mo, 23.07. 5:20 -
Mo, 23.07. 5:10 -
Mo, 23.07. 5:00 -
Mo, 23.07. 4:30 -
Mo, 23.07. 4:00 -
Mo, 23.07. 3:30 -
Mo, 23.07. 3:00 -
Link zu dieser Seite / Seite empfehlen

Das Wetter in ...